AKDT,Max TemperatureF,Mean TemperatureF,Min TemperatureF,Max Dew PointF,MeanDew PointF,Min DewpointF,Max Humidity, Mean Humidity, Min Humidity, Max Sea Level PressureIn, Mean Sea Level PressureIn, Min Sea Level PressureIn, Max VisibilityMiles, Mean VisibilityMiles, Min VisibilityMiles, Max Wind SpeedMPH, Mean Wind SpeedMPH, Max Gust SpeedMPH,PrecipitationIn, CloudCover, Events, WindDirDegrees
2012-10-1,45,41,36,45,41,34,0,0,0,29.93,29.89,29.82,10,8,3,26,18,35,0.31,8,Rain,159
2012-10-2,49,45,41,45,41,39,0,0,0,29.92,29.83,29.78,10,8,2,21,11,25,0.11,8,Rain,134
2012-10-3,52,47,41,46,42,38,0,0,0,29.89,29.72,29.37,10,10,5,20,10,25,0.17,8,Rain,103
2012-10-4,52,49,45,46,42,37,0,0,0,29.70,29.51,29.36,10,9,3,37,18,44,T,8,Rain,154
2012-10-5,47,46,44,43,39,36,0,0,0,29.92,29.82,29.70,10,9,4,38,28,49,T,8,Rain,176
2012-10-6,45,41,36,40,38,35,100,91,76,30.17,30.07,29.94,10,9,5,24,11,31,0.04,6,Rain,174
2012-10-7,43,40,36,43,39,34,0,0,0,30.14,30.10,30.06,10,7,2,12,9,14,0.09,8,Rain,18
2012-10-8,41,40,39,41,39,37,0,0,0,30.21,30.15,30.08,10,5,1,20,13,23,0.49,8,Rain,26
2012-10-9,44,41,38,41,38,34,0,0,0,30.19,30.16,30.11,10,8,2,18,13,22,0.01,6,Fog,30
2012-10-10,41,37,32,33,29,25,0,0,0,30.11,30.00,29.88,10,10,10,29,18,35,0.00,1,Snow,37
2012-10-11,38,33,28,24,22,19,0,0,0,29.87,29.73,29.62,10,10,9,30,21,37,0.00,1,,34
2012-10-12,35,31,27,20,18,16,67,59,41,29.61,29.52,29.45,10,10,10,29,21,37,0.00,0,,17
2012-10-13,34,30,25,18,15,13,71,54,28,29.47,29.44,29.41,10,10,5,37,0,47,0.00,0,,6
2012-10-14,35,28,20,23,18,15,0,0,0,29.48,29.46,29.44,10,10,10,22,15,26,0.00,1,,340
2012-10-15,32,27,22,22,19,15,0,0,0,29.69,29.61,29.49,10,10,10,29,18,35,0.00,1,,323
2012-10-16,32,27,22,20,18,15,0,0,0,29.97,29.83,29.70,10,9,2,38,20,45,0.00,2,Snow,320
2012-10-17,32,27,21,19,17,13,0,0,0,30.15,30.10,30.00,10,10,10,28,17,35,0.00,2,,318
2012-10-18,32,27,22,21,20,18,0,0,0,30.30,30.23,30.15,10,10,10,28,17,32,0.00,4,,323
2012-10-19,29,24,19,27,22,17,0,0,0,30.50,30.42,30.31,10,10,10,14,10,21,0.00,5,,305
2012-10-20,34,32,29,34,31,26,0,0,0,30.56,30.53,30.49,10,3,0,7,4,8,0.01,7,Fog-Snow,185
2012-10-21,32,26,20,32,28,19,0,0,0,30.48,30.34,30.28,10,6,1,10,6,13,0.00,7,Snow,156
2012-10-22,37,32,26,34,33,26,100,97,80,30.52,30.42,30.31,10,6,0,15,7,17,0.02,8,Fog-Rain,314
2012-10-23,28,23,17,27,19,13,0,0,0,30.52,30.47,30.43,10,10,10,22,13,28,0.00,3,,25
2012-10-24,24,20,16,13,12,10,0,0,0,30.48,30.46,30.44,10,10,10,26,18,32,0.00,1,Snow,25
2012-10-25,30,22,13,14,12,10,0,0,0,30.56,30.52,30.47,10,10,10,17,9,22,0.00,1,,28
2012-10-26,33,25,16,19,16,13,0,0,0,30.54,30.42,30.27,10,10,10,18,10,21,0.00,3,,12
2012-10-27,32,26,20,21,17,15,0,0,0,30.25,30.17,30.12,10,10,10,22,13,25,0.00,0,,20
2012-10-28,33,26,18,21,18,15,0,0,0,30.15,30.14,30.12,10,10,10,20,12,24,0.00,0,,11
2012-10-29,31,23,14,27,18,12,0,0,0,30.38,30.25,30.14,10,10,7,24,12,31,0.02,3,Snow,332
2012-10-30,30,23,15,22,17,12,0,0,0,30.40,30.31,30.22,10,10,8,25,17,32,T,4,Snow,329
2012-10-31,25,21,16,15,12,8,0,0,0,30.22,30.08,29.95,10,10,6,35,23,44,0.00,1,,342